Location: Marcé
(47.5801°N, 0.3280°W)
Time: 20:18:51
(UTC+01:00)

Explorer 7 - Pass Details

Date: 04 December 2021
Orbit: 483 x 674 km, 50.3° (Epoch: 17 January)

Event Time Altitude Azimuth Distance (km) Brightness Sun altitude
Rises 12:52:42 0° 287° (WNW) 2,614 10.1 20.1°
Reaches altitude 10° 12:55:16 10° 271° (W) 1,701 9.4 20.1°
Maximum altitude 12:58:14 22° 220° (SW) 1,124 9.4 20.1°
Drops below altitude 10° 13:01:09 10° 169° (S) 1,659 11.2 20.1°
Sets 13:03:38 0° 153° (SSE) 2,531 11.2 20.1°
